Hauptseite
METAR-TAF:

METAR-TAF

Flughäfen :

Minna, Nigeria

Breite: 9-37N, Länge: 6-32E, Höhe: 260 m

Beobachtung

Neuester Wetterbericht von vor 6 Stunden und 19 Minuten, um 23:00 UTC
Wind 1 kt aus Süd
Temperatur 23°C
Luftfeuchtigkeit 94%
Luftdruck 1013 hPa
Sichtweite 10 km oder mehr
keine Wolken unter 1500 m und keine Kumulonimbus oder Gewitterwolken

METAR: DNMN 242300Z 17001KT CAVOK 23/22 Q1013

Zeit: 06:19 (05:19 UTC)


TAF: fehlend

Wetterbeobachtungen und Prognosen von mehr als 4000 Flughäfen (METAR und TAF Bericht).

Die verfügbaren Stationen werden durch gelbe und rote Markierungen auf der Karte dargestellt.

Führen Sie die Maus auf sie, um den Namen der Station zu sehen.

Darauf klicken, um die Beobachtung von Wetterbeobachtungen und Prognosen zu sehen.

Um die Karte zu ändern : klicken Sie auf den grünen Tasten mit einem schwarzen Kreuz Zum Vergrößern, auf den grünen Button mit einem Gedankenstrich zu verkleinern, oder auf die grünen Pfeile für benachbarte Karten.


METAR-TAF: